CDT,Max TemperatureF,Mean TemperatureF,Min TemperatureF,Max Dew PointF,MeanDew PointF,Min DewpointF,Max Humidity, Mean Humidity, Min Humidity, Max Sea Level PressureIn, Mean Sea Level PressureIn, Min Sea Level PressureIn, Max VisibilityMiles, Mean VisibilityMiles, Min VisibilityMiles, Max Wind SpeedMPH, Mean Wind SpeedMPH, Max Gust SpeedMPH,PrecipitationIn, CloudCover, Events, WindDirDegrees
2012-10-1,84,72,60,60,52,46,90,57,26,29.86,29.82,29.78,10,10,8,16,8,22,0.00,0,,314
2012-10-2,80,71,63,56,54,51,75,59,39,29.96,29.91,29.85,10,10,10,10,7,,0.00,1,,297
2012-10-3,84,72,63,55,51,47,70,50,29,30.00,29.96,29.92,10,10,10,15,5,24,0.00,0,,161
2012-10-4,86,74,64,67,62,54,81,64,51,30.10,30.05,30.00,10,10,10,14,8,24,0.00,4,,149
2012-10-5,87,72,60,70,64,49,88,69,49,30.08,30.04,29.95,10,10,10,17,7,23,0.00,5,,264
2012-10-6,59,54,48,48,44,38,82,70,57,30.25,30.15,30.08,10,10,10,14,11,20,0.00,8,,18
2012-10-7,54,50,48,38,35,32,66,56,45,30.31,30.25,30.20,10,10,10,14,9,18,0.00,8,Rain,17
2012-10-8,66,54,42,44,39,34,82,59,38,30.27,30.17,30.06,10,10,10,10,4,,0.00,0,,139
2012-10-9,80,66,52,63,56,45,80,68,54,30.06,29.96,29.85,10,10,10,15,8,24,0.00,4,,161
2012-10-10,72,66,62,67,63,60,96,86,75,30.15,30.08,29.95,10,5,0,12,4,,0.00,6,Fog,70
2012-10-11,84,74,64,72,67,60,94,83,59,30.15,30.09,30.02,10,8,4,20,5,24,0.01,6,Rain,136
2012-10-12,86,76,69,69,67,65,93,77,53,30.17,30.11,30.05,10,8,5,14,6,23,0.00,5,,151
2012-10-13,82,76,71,71,68,65,84,77,65,30.04,29.97,29.81,10,10,10,16,12,29,0.00,5,Rain,168
2012-10-14,82,73,64,72,60,50,90,68,33,30.08,29.96,29.83,10,8,1,30,11,46,0.86,2,Rain-Thunderstorm,281
2012-10-15,82,70,57,54,49,43,77,53,25,30.11,30.04,29.96,10,10,8,6,2,,0.00,0,,173
2012-10-16,75,67,61,63,55,48,88,66,52,29.95,29.80,29.68,10,10,10,13,5,24,0.00,2,,174
2012-10-17,88,76,64,66,58,45,84,61,29,29.78,29.64,29.55,10,10,10,18,11,29,0.00,4,,230
2012-10-18,77,64,52,45,32,25,57,32,16,30.00,29.93,29.78,10,10,10,12,6,18,0.00,0,,352
2012-10-19,78,64,50,41,33,27,63,36,16,30.04,29.96,29.89,10,10,10,15,7,20,0.00,0,,266
2012-10-20,87,72,57,69,55,34,79,53,36,29.89,29.81,29.73,10,10,10,16,7,28,0.00,0,,180
2012-10-21,90,82,75,70,69,66,83,69,46,29.89,29.82,29.76,10,10,9,17,11,26,0.00,4,,175
2012-10-22,84,78,73,70,68,62,88,76,53,29.99,29.92,29.86,10,10,10,15,10,25,0.00,5,,174
2012-10-23,84,77,70,68,66,64,87,71,55,29.96,29.92,29.87,10,10,10,14,9,23,0.00,4,,168
2012-10-24,84,76,68,66,63,61,90,68,46,30.00,29.90,29.81,10,10,9,17,9,25,0.00,2,,170
2012-10-25,81,69,57,69,60,44,88,75,58,30.04,29.89,29.79,10,10,6,24,11,30,0.05,6,Rain,239
2012-10-26,55,52,46,44,37,30,80,59,44,30.31,30.21,30.07,10,10,10,20,14,30,0.04,5,,359
2012-10-27,60,48,37,33,29,26,76,52,29,30.34,30.25,30.17,10,10,10,10,8,,0.00,0,,344
2012-10-28,64,50,37,34,29,25,76,50,23,30.30,30.24,30.18,10,10,10,8,4,18,0.00,0,,350
2012-10-29,69,52,37,34,30,25,76,49,21,30.30,30.22,30.12,10,9,2,6,1,,0.00,0,,134
2012-10-30,77,62,46,44,37,32,63,41,26,30.12,30.02,29.94,10,10,7,8,4,,0.00,0,,197
2012-10-31,82,71,60,51,48,45,72,49,26,30.02,29.97,29.94,10,10,10,12,5,,0.00,0,,256